This is the latest recevied weather packets stored in our database for station/object M0JUI-1. If no packets are shown the sender has not sent any weather packets the latest 10 day(s).
| Time | Temp. | Humidity | Pressure | Rain* | Wind** | Luminosity | Snow |
|---|---|---|---|---|---|---|---|
| 1788178304 | 17.22° C | 99% | 1012.2 hPa | 0.25 mm | - | 159 W/m² | - |
| 1788178004 | 17.22° C | 1% | 1012.2 hPa | 0.25 mm | - | 304 W/m² | - |
| 1788177704 | 17.22° C | 1% | 1012.2 hPa | 0.25 mm | - | 414 W/m² | - |
| 1788177404 | 16.11° C | 1% | 1012.1 hPa | 0.25 mm | - | 374 W/m² | - |
| 1788177105 | 16.11° C | 1% | 1012.1 hPa | 0.25 mm | - | 275 W/m² | - |
| 1788176805 | 16.11° C | 1% | 1012.1 hPa | 0.25 mm | - | 284 W/m² | - |
| 1788176504 | 15.56° C | 1% | 1011.9 hPa | 0.25 mm | - | 336 W/m² | - |
| 1788176204 | 15.56° C | 1% | 1011.9 hPa | 0 mm | - | 232 W/m² | - |
| 1788175892 | 16.11° C | 1% | 1011.7 hPa | 0 mm | - | 212 W/m² | - |
| 1788175592 | 16.67° C | 1% | 1011.4 hPa | 0 mm | - | 208 W/m² | - |
| 1788175292 | 16.11° C | 3% | 1011.5 hPa | 0.25 mm | - | 310 W/m² | - |
| 1788174981 | 15.56° C | 3% | 1011.3 hPa | 0.25 mm | - | 397 W/m² | - |
| 1788174680 | 15.56° C | 4% | 1011.1 hPa | 0.51 mm | - | 144 W/m² | - |
| 1788174380 | 16.11° C | 4% | 1011.1 hPa | 0.51 mm | - | 115 W/m² | - |
| 1788174068 | 16.67° C | 5% | 1011.2 hPa | 0.51 mm | - | 67 W/m² | - |
| 1788173768 | 16.11° C | 6% | 1011 hPa | 0.51 mm | - | 209 W/m² | - |
| 1788173468 | 15.56° C | 8% | 1010.8 hPa | 0.76 mm | - | 419 W/m² | - |
| 1788173156 | 15.56° C | 11% | 1010.8 hPa | 1.02 mm | - | 152 W/m² | - |
| 1788172856 | 16.11° C | 13% | 1010.8 hPa | 1.52 mm | - | 243 W/m² | - |
| 1788172557 | 15.56° C | 14% | 1010.6 hPa | 3.05 mm | - | 371 W/m² | - |
| 1788172256 | 15° C | 14% | 1010.5 hPa | 5.08 mm | - | 170 W/m² | - |
| 1788171956 | 15° C | 14% | 1010.5 hPa | 5.84 mm | - | 81 W/m² | - |
| 1788171661 | 15.56° C | 14% | 1010.4 hPa | 5.59 mm | - | 113 W/m² | - |
| 1788171354 | 15.56° C | 15% | 1010.4 hPa | 5.59 mm | - | 158 W/m² | - |
| 1788171056 | 15.56° C | 15% | 1010.3 hPa | 5.33 mm | - | 126 W/m² | - |
* Rain latest hour (hover to see other rain measurements)
** Current wind speed in m/s (hover to see current wind gust speed)